Year,Month,Day,Hour,Minute,Value (Times are PST for temperature in C)
2020,05,27,00,00,10.90
2020,05,27,00,01,10.90
2020,05,27,00,02,10.90
2020,05,27,00,03,10.90
2020,05,27,00,04,10.90
2020,05,27,00,05,10.90
2020,05,27,00,06,10.90
2020,05,27,00,07,10.90
2020,05,27,00,08,10.90
2020,05,27,00,09,10.90
2020,05,27,00,10,10.90
2020,05,27,00,11,10.90
2020,05,27,00,12,10.80
2020,05,27,00,13,10.80
2020,05,27,00,14,10.80
2020,05,27,00,15,10.80
2020,05,27,00,16,10.70
2020,05,27,00,17,10.70
2020,05,27,00,18,10.70
2020,05,27,00,19,10.70
2020,05,27,00,20,10.60
2020,05,27,00,21,10.60
2020,05,27,00,22,10.60
2020,05,27,00,23,10.50
2020,05,27,00,24,10.50
2020,05,27,00,25,10.50
2020,05,27,00,26,10.50
2020,05,27,00,27,10.50
2020,05,27,00,28,10.40
2020,05,27,00,29,10.40
2020,05,27,00,30,10.40
2020,05,27,00,31,10.40
2020,05,27,00,32,10.40
2020,05,27,00,33,10.40
2020,05,27,00,34,10.30
2020,05,27,00,35,10.30
2020,05,27,00,36,10.30
2020,05,27,00,37,10.30
2020,05,27,00,38,10.30
2020,05,27,00,39,10.20
2020,05,27,00,40,10.20
2020,05,27,00,41,10.20
2020,05,27,00,42,10.20
2020,05,27,00,43,10.20
2020,05,27,00,44,10.20
2020,05,27,00,45,10.20
2020,05,27,00,46,10.20
2020,05,27,00,47,10.20
2020,05,27,00,48,10.20
2020,05,27,00,49,10.20
2020,05,27,00,50,10.20
2020,05,27,00,51,10.10
2020,05,27,00,52,10.10
2020,05,27,00,53,10.10
2020,05,27,00,54,10.10
2020,05,27,00,55,10.10
2020,05,27,00,56,10.10
2020,05,27,00,57,10.10
2020,05,27,00,58,10.10
2020,05,27,00,59,10.00
2020,05,27,01,00,10.00
2020,05,27,01,01,10.00
2020,05,27,01,02,10.00
2020,05,27,01,03,10.00
2020,05,27,01,04,10.00
2020,05,27,01,05,10.00
2020,05,27,01,06,10.00
2020,05,27,01,07,10.00
2020,05,27,01,08,10.00
2020,05,27,01,09,10.00
2020,05,27,01,10,10.00
2020,05,27,01,11,10.00
2020,05,27,01,12,10.00
2020,05,27,01,13,10.00
2020,05,27,01,14,10.00
2020,05,27,01,15,10.00
2020,05,27,01,16,10.00
2020,05,27,01,17,10.00
2020,05,27,01,18,10.00
2020,05,27,01,19,10.00
2020,05,27,01,20,10.00
2020,05,27,01,21,10.00
2020,05,27,01,22,10.00
2020,05,27,01,23,10.00
2020,05,27,01,24,10.00
2020,05,27,01,25,9.90
2020,05,27,01,26,9.90
2020,05,27,01,27,9.90
2020,05,27,01,28,9.90
2020,05,27,01,29,9.90
2020,05,27,01,30,9.90
2020,05,27,01,31,9.90
2020,05,27,01,32,9.90
2020,05,27,01,33,9.90
2020,05,27,01,34,9.80
2020,05,27,01,35,9.80
2020,05,27,01,36,9.80
2020,05,27,01,37,9.80
2020,05,27,01,38,9.80
2020,05,27,01,39,9.70
2020,05,27,01,40,9.70
2020,05,27,01,41,9.70
2020,05,27,01,42,9.70
2020,05,27,01,43,9.70
2020,05,27,01,44,9.60
2020,05,27,01,45,9.60
2020,05,27,01,46,9.60
2020,05,27,01,47,9.60
2020,05,27,01,48,9.50
2020,05,27,01,49,9.50
2020,05,27,01,50,9.50
2020,05,27,01,51,9.40
2020,05,27,01,52,9.40
2020,05,27,01,53,9.40
2020,05,27,01,54,9.40
2020,05,27,01,55,9.40
2020,05,27,01,56,9.40
2020,05,27,01,57,9.40
2020,05,27,01,58,9.40
2020,05,27,01,59,9.30
2020,05,27,02,00,9.30
2020,05,27,02,01,9.30
2020,05,27,02,02,9.30
2020,05,27,02,03,9.30
2020,05,27,02,04,9.30
2020,05,27,02,05,9.30
2020,05,27,02,06,9.30
2020,05,27,02,07,9.30
2020,05,27,02,08,9.30
2020,05,27,02,09,9.30
2020,05,27,02,10,9.30
2020,05,27,02,11,9.30
2020,05,27,02,12,9.30
2020,05,27,02,13,9.30
2020,05,27,02,14,9.30
2020,05,27,02,15,9.30
2020,05,27,02,16,9.30
2020,05,27,02,17,9.30
2020,05,27,02,18,9.30
2020,05,27,02,19,9.30
2020,05,27,02,20,9.30
2020,05,27,02,21,9.30
2020,05,27,02,22,9.30
2020,05,27,02,23,9.30
2020,05,27,02,24,9.20
2020,05,27,02,25,9.20
2020,05,27,02,26,9.20
2020,05,27,02,27,9.20
2020,05,27,02,28,9.20
2020,05,27,02,29,9.20
2020,05,27,02,30,9.20
2020,05,27,02,31,9.20
2020,05,27,02,32,9.20
2020,05,27,02,33,9.20
2020,05,27,02,34,9.20
2020,05,27,02,35,9.20
2020,05,27,02,36,9.20
2020,05,27,02,37,9.20
2020,05,27,02,38,9.20
2020,05,27,02,39,9.20
2020,05,27,02,40,9.20
2020,05,27,02,41,9.20
2020,05,27,02,42,9.20
2020,05,27,02,43,9.20
2020,05,27,02,44,9.20
2020,05,27,02,45,9.20
2020,05,27,02,46,9.20
2020,05,27,02,47,9.20
2020,05,27,02,48,9.20
2020,05,27,02,49,9.20
2020,05,27,02,50,9.20
2020,05,27,02,51,9.20
2020,05,27,02,52,9.20
2020,05,27,02,53,9.20
2020,05,27,02,54,9.20
2020,05,27,02,55,9.20
2020,05,27,02,56,9.20
2020,05,27,02,57,9.20
2020,05,27,02,58,9.20
2020,05,27,02,59,9.20
2020,05,27,03,00,9.20
2020,05,27,03,01,9.20
2020,05,27,03,02,9.20
2020,05,27,03,03,9.20
2020,05,27,03,04,9.20
2020,05,27,03,05,9.20
2020,05,27,03,06,9.20
2020,05,27,03,07,9.20
2020,05,27,03,08,9.20
2020,05,27,03,09,9.20
2020,05,27,03,10,9.20
2020,05,27,03,11,9.20
2020,05,27,03,12,9.20
2020,05,27,03,13,9.20
2020,05,27,03,14,9.20
2020,05,27,03,15,9.20
2020,05,27,03,16,9.20
2020,05,27,03,17,9.20
2020,05,27,03,18,9.20
2020,05,27,03,19,9.20
2020,05,27,03,20,9.20
2020,05,27,03,21,9.20
2020,05,27,03,22,9.20
2020,05,27,03,23,9.20
2020,05,27,03,24,9.20
2020,05,27,03,25,9.20
2020,05,27,03,26,9.20
2020,05,27,03,27,9.10
2020,05,27,03,28,9.10
2020,05,27,03,29,9.10
2020,05,27,03,30,9.10
2020,05,27,03,31,9.10
2020,05,27,03,32,9.10
2020,05,27,03,33,9.10
2020,05,27,03,34,9.10
2020,05,27,03,35,9.10
2020,05,27,03,36,9.00
2020,05,27,03,37,9.00
2020,05,27,03,38,9.00
2020,05,27,03,39,9.00
2020,05,27,03,40,8.90
2020,05,27,03,41,8.90
2020,05,27,03,42,8.90
2020,05,27,03,43,8.90
2020,05,27,03,44,8.80
2020,05,27,03,45,8.80
2020,05,27,03,46,8.80
2020,05,27,03,47,8.80
2020,05,27,03,48,8.80
2020,05,27,03,49,8.70
2020,05,27,03,50,8.70
2020,05,27,03,51,8.70
2020,05,27,03,52,8.70
2020,05,27,03,53,8.70
2020,05,27,03,54,8.70
2020,05,27,03,55,8.70
2020,05,27,03,56,8.70
2020,05,27,03,57,8.70
2020,05,27,03,58,8.70
2020,05,27,03,59,8.60
2020,05,27,04,00,8.60
2020,05,27,04,01,8.60
2020,05,27,04,02,8.60
2020,05,27,04,03,8.60
2020,05,27,04,04,8.60
2020,05,27,04,05,8.60
2020,05,27,04,06,8.60
2020,05,27,04,07,8.60
2020,05,27,04,08,8.60
2020,05,27,04,09,8.60
2020,05,27,04,10,8.60
2020,05,27,04,11,8.60
2020,05,27,04,12,8.60
2020,05,27,04,13,8.60
2020,05,27,04,14,8.60
2020,05,27,04,15,8.60
2020,05,27,04,16,8.60
2020,05,27,04,17,8.60
2020,05,27,04,18,8.60
2020,05,27,04,19,8.60
2020,05,27,04,20,8.60
2020,05,27,04,21,8.60
2020,05,27,04,22,8.60
2020,05,27,04,23,8.60
2020,05,27,04,24,8.60
2020,05,27,04,25,8.60
2020,05,27,04,26,8.60
2020,05,27,04,27,8.60
2020,05,27,04,28,8.60
2020,05,27,04,29,8.60
2020,05,27,04,30,8.60
2020,05,27,04,31,8.70
2020,05,27,04,32,8.70
2020,05,27,04,33,8.70
2020,05,27,04,34,8.70
2020,05,27,04,35,8.70
2020,05,27,04,36,8.70
2020,05,27,04,37,8.70
2020,05,27,04,38,8.70
2020,05,27,04,39,8.70
2020,05,27,04,40,8.80
2020,05,27,04,41,8.70
2020,05,27,04,42,8.70
2020,05,27,04,43,8.80
2020,05,27,04,44,8.70
2020,05,27,04,45,8.70
2020,05,27,04,46,8.70
2020,05,27,04,47,8.70
2020,05,27,04,48,8.70
2020,05,27,04,49,8.70
2020,05,27,04,50,8.70
2020,05,27,04,51,8.70
2020,05,27,04,52,8.70
2020,05,27,04,53,8.70
2020,05,27,04,54,8.70
2020,05,27,04,55,8.70
2020,05,27,04,56,8.60
2020,05,27,04,57,8.60
2020,05,27,04,58,8.60
2020,05,27,04,59,8.60
2020,05,27,05,00,8.70
2020,05,27,05,01,8.70
2020,05,27,05,02,8.70
2020,05,27,05,03,8.70
2020,05,27,05,04,8.80
2020,05,27,05,05,8.80
2020,05,27,05,06,8.80
2020,05,27,05,07,8.80
2020,05,27,05,08,8.80
2020,05,27,05,09,8.80
2020,05,27,05,10,8.80
2020,05,27,05,11,8.80
2020,05,27,05,12,8.80
2020,05,27,05,13,8.80
2020,05,27,05,14,8.80
2020,05,27,05,15,8.80
2020,05,27,05,16,8.90
2020,05,27,05,17,8.90
2020,05,27,05,18,8.90
2020,05,27,05,19,8.90
2020,05,27,05,20,8.90
2020,05,27,05,21,8.90
2020,05,27,05,22,8.90
2020,05,27,05,23,8.90
2020,05,27,05,24,8.80
2020,05,27,05,25,8.80
2020,05,27,05,26,8.80
2020,05,27,05,27,8.80
2020,05,27,05,28,8.80
2020,05,27,05,29,8.80
2020,05,27,05,30,8.80
2020,05,27,05,31,8.80
2020,05,27,05,32,8.80
2020,05,27,05,33,8.80
2020,05,27,05,34,8.80
2020,05,27,05,35,8.80
2020,05,27,05,36,8.80
2020,05,27,05,37,8.80
2020,05,27,05,38,8.80
2020,05,27,05,39,8.80
2020,05,27,05,40,8.80
2020,05,27,05,41,8.80
2020,05,27,05,42,8.80
2020,05,27,05,43,8.80
2020,05,27,05,44,8.80
2020,05,27,05,45,8.80
2020,05,27,05,46,8.80
2020,05,27,05,47,8.90
2020,05,27,05,48,8.80
2020,05,27,05,49,8.90
2020,05,27,05,50,8.90
2020,05,27,05,51,8.90
2020,05,27,05,52,8.90
2020,05,27,05,53,8.90
2020,05,27,05,54,8.90
2020,05,27,05,55,8.90
2020,05,27,05,56,8.90
2020,05,27,05,57,8.90
2020,05,27,05,58,9.00
2020,05,27,05,59,9.00
2020,05,27,06,00,9.00
2020,05,27,06,01,9.00
2020,05,27,06,02,9.00
2020,05,27,06,03,9.10
2020,05,27,06,04,9.10
2020,05,27,06,05,9.10
2020,05,27,06,06,9.10
2020,05,27,06,07,9.10
2020,05,27,06,08,9.10
2020,05,27,06,09,9.10
2020,05,27,06,10,9.20
2020,05,27,06,11,9.20
2020,05,27,06,12,9.20
2020,05,27,06,13,9.20
2020,05,27,06,14,9.20
2020,05,27,06,15,9.20
2020,05,27,06,16,9.20
2020,05,27,06,17,9.20
2020,05,27,06,18,9.20
2020,05,27,06,19,9.20
2020,05,27,06,20,9.30
2020,05,27,06,21,9.30
2020,05,27,06,22,9.30
2020,05,27,06,23,9.30
2020,05,27,06,24,9.30
2020,05,27,06,25,9.30
2020,05,27,06,26,9.30
2020,05,27,06,27,9.30
2020,05,27,06,28,9.30
2020,05,27,06,29,9.30
2020,05,27,06,30,9.30
2020,05,27,06,31,9.30
2020,05,27,06,32,9.30
2020,05,27,06,33,9.30
2020,05,27,06,34,9.30
2020,05,27,06,35,9.30
2020,05,27,06,36,9.30
2020,05,27,06,37,9.40
2020,05,27,06,38,9.40
2020,05,27,06,39,9.40
2020,05,27,06,40,9.40
2020,05,27,06,41,9.40
2020,05,27,06,42,9.40
2020,05,27,06,43,9.40
2020,05,27,06,44,9.40
2020,05,27,06,45,9.40
2020,05,27,06,46,9.40
2020,05,27,06,47,9.50
2020,05,27,06,48,9.50
2020,05,27,06,49,9.50
2020,05,27,06,50,9.50
2020,05,27,06,51,9.60
2020,05,27,06,52,9.60
2020,05,27,06,53,9.60
2020,05,27,06,54,9.60
2020,05,27,06,55,9.60
2020,05,27,06,56,9.60
2020,05,27,06,57,9.70
2020,05,27,06,58,9.70
2020,05,27,06,59,9.70
2020,05,27,07,00,9.70
2020,05,27,07,01,9.70
2020,05,27,07,02,9.70
2020,05,27,07,03,9.70
2020,05,27,07,04,9.70
2020,05,27,07,05,9.70
2020,05,27,07,06,9.80
2020,05,27,07,07,9.80
2020,05,27,07,08,9.80
2020,05,27,07,09,9.80
2020,05,27,07,10,9.80
2020,05,27,07,11,9.80
2020,05,27,07,12,9.90
2020,05,27,07,13,9.90
2020,05,27,07,14,9.90
2020,05,27,07,15,10.00
2020,05,27,07,16,10.10
2020,05,27,07,17,10.10
2020,05,27,07,18,10.10
2020,05,27,07,19,10.20
2020,05,27,07,20,10.20
2020,05,27,07,21,10.30
2020,05,27,07,22,10.30
2020,05,27,07,23,10.30
2020,05,27,07,24,10.40
2020,05,27,07,25,10.40
2020,05,27,07,26,10.50
2020,05,27,07,27,10.50
2020,05,27,07,28,10.60
2020,05,27,07,29,10.60
2020,05,27,07,30,10.70
2020,05,27,07,31,10.80
2020,05,27,07,32,10.80
2020,05,27,07,33,10.80
2020,05,27,07,34,10.90
2020,05,27,07,35,10.90
2020,05,27,07,36,11.00
2020,05,27,07,37,11.10
2020,05,27,07,38,11.10
2020,05,27,07,39,11.20
2020,05,27,07,40,11.20
2020,05,27,07,41,11.30
2020,05,27,07,42,11.30
2020,05,27,07,43,11.30
2020,05,27,07,44,11.40
2020,05,27,07,45,11.40
2020,05,27,07,46,11.40
2020,05,27,07,47,11.40
2020,05,27,07,48,11.40
2020,05,27,07,49,11.50
2020,05,27,07,50,11.50
2020,05,27,07,51,11.50
2020,05,27,07,52,11.50
2020,05,27,07,53,11.50
2020,05,27,07,54,11.60
2020,05,27,07,55,11.60
2020,05,27,07,56,11.60
2020,05,27,07,57,11.60
2020,05,27,07,58,11.60
2020,05,27,07,59,11.60
2020,05,27,08,00,11.70
2020,05,27,08,01,11.70
2020,05,27,08,02,11.70
2020,05,27,08,03,11.80
2020,05,27,08,04,11.90
2020,05,27,08,05,11.90
2020,05,27,08,06,12.00
2020,05,27,08,07,12.10
2020,05,27,08,08,12.10
2020,05,27,08,09,12.20
2020,05,27,08,10,12.20
2020,05,27,08,11,12.20
2020,05,27,08,12,12.30
2020,05,27,08,13,12.30
2020,05,27,08,14,12.30
2020,05,27,08,15,12.40
2020,05,27,08,16,12.40
2020,05,27,08,17,12.50
2020,05,27,08,18,12.50
2020,05,27,08,19,12.50
2020,05,27,08,20,12.60
2020,05,27,08,21,12.60
2020,05,27,08,22,12.70
2020,05,27,08,23,12.70
2020,05,27,08,24,12.70
2020,05,27,08,25,12.80
2020,05,27,08,26,12.80
2020,05,27,08,27,12.80
2020,05,27,08,28,12.80
2020,05,27,08,29,12.80
2020,05,27,08,30,12.80
2020,05,27,08,31,12.80
2020,05,27,08,32,12.80
2020,05,27,08,33,12.90
2020,05,27,08,34,12.90
2020,05,27,08,35,12.90
2020,05,27,08,36,12.80
2020,05,27,08,37,12.90
2020,05,27,08,38,12.90
2020,05,27,08,39,12.90
2020,05,27,08,40,12.90
2020,05,27,08,41,13.00
2020,05,27,08,42,13.00
2020,05,27,08,43,13.00
2020,05,27,08,44,13.10
2020,05,27,08,45,13.10
2020,05,27,08,46,13.20
2020,05,27,08,47,13.20
2020,05,27,08,48,13.20
2020,05,27,08,49,13.30
2020,05,27,08,50,13.40
2020,05,27,08,51,13.40
2020,05,27,08,52,13.40
2020,05,27,08,53,13.50
2020,05,27,08,54,13.50
2020,05,27,08,55,13.60
2020,05,27,08,56,13.60
2020,05,27,08,57,13.70
2020,05,27,08,58,13.70
2020,05,27,08,59,13.80
2020,05,27,09,00,13.80
2020,05,27,09,01,13.90
2020,05,27,09,02,13.90
2020,05,27,09,03,13.90
2020,05,27,09,04,14.00
2020,05,27,09,05,14.00
2020,05,27,09,06,14.10
2020,05,27,09,07,14.10
2020,05,27,09,08,14.10
2020,05,27,09,09,14.10
2020,05,27,09,10,14.10
2020,05,27,09,11,14.20
2020,05,27,09,12,14.20
2020,05,27,09,13,14.20
2020,05,27,09,14,14.20
2020,05,27,09,15,14.30
2020,05,27,09,16,14.30
2020,05,27,09,17,14.30
2020,05,27,09,18,14.40
2020,05,27,09,19,14.40
2020,05,27,09,20,14.50
2020,05,27,09,21,14.60
2020,05,27,09,22,14.60
2020,05,27,09,23,14.60
2020,05,27,09,24,14.70
2020,05,27,09,25,14.70
2020,05,27,09,26,14.80
2020,05,27,09,27,14.80
2020,05,27,09,28,14.90
2020,05,27,09,29,14.90
2020,05,27,09,30,15.00
2020,05,27,09,31,15.00
2020,05,27,09,32,15.10
2020,05,27,09,33,15.10
2020,05,27,09,34,15.10
2020,05,27,09,35,15.20
2020,05,27,09,36,15.20
2020,05,27,09,37,15.20
2020,05,27,09,38,15.20
2020,05,27,09,39,15.20
2020,05,27,09,40,15.30
2020,05,27,09,41,15.30
2020,05,27,09,42,15.30
2020,05,27,09,43,15.30
2020,05,27,09,44,15.40
2020,05,27,09,45,15.40
2020,05,27,09,46,15.40
2020,05,27,09,47,15.50
2020,05,27,09,48,15.50
2020,05,27,09,49,15.60
2020,05,27,09,50,15.60
2020,05,27,09,51,15.70
2020,05,27,09,52,15.70
2020,05,27,09,53,15.70
2020,05,27,09,54,15.80
2020,05,27,09,55,15.80
2020,05,27,09,56,15.80
2020,05,27,09,57,15.80
2020,05,27,09,58,15.90
2020,05,27,09,59,15.90
2020,05,27,10,00,15.90
2020,05,27,10,01,16.00
2020,05,27,10,02,16.00
2020,05,27,10,03,16.10
2020,05,27,10,04,16.10
2020,05,27,10,05,16.20
2020,05,27,10,06,16.20
2020,05,27,10,07,16.30
2020,05,27,10,08,16.30
2020,05,27,10,09,16.40
2020,05,27,10,10,16.40
2020,05,27,10,11,16.50
2020,05,27,10,12,16.60
2020,05,27,10,13,16.70
2020,05,27,10,14,16.70
2020,05,27,10,15,16.80
2020,05,27,10,16,16.80
2020,05,27,10,17,16.90
2020,05,27,10,18,16.90
2020,05,27,10,19,17.00
2020,05,27,10,20,17.10
2020,05,27,10,21,17.20
2020,05,27,10,22,17.20
2020,05,27,10,23,17.30
2020,05,27,10,24,17.30
2020,05,27,10,25,17.30
2020,05,27,10,26,17.30
2020,05,27,10,27,17.30
2020,05,27,10,28,17.30
2020,05,27,10,29,17.30
2020,05,27,10,30,17.30
2020,05,27,10,31,17.30
2020,05,27,10,32,17.40
2020,05,27,10,33,17.40
2020,05,27,10,34,17.40
2020,05,27,10,35,17.40
2020,05,27,10,36,17.40
2020,05,27,10,37,17.40
2020,05,27,10,38,17.40
2020,05,27,10,39,17.40
2020,05,27,10,40,17.50
2020,05,27,10,41,17.50
2020,05,27,10,42,17.50
2020,05,27,10,43,17.50
2020,05,27,10,44,17.60
2020,05,27,10,45,17.60
2020,05,27,10,46,17.60
2020,05,27,10,47,17.60
2020,05,27,10,48,17.60
2020,05,27,10,49,17.60
2020,05,27,10,50,17.60
2020,05,27,10,51,17.60
2020,05,27,10,52,17.60
2020,05,27,10,53,17.60
2020,05,27,10,54,17.70
2020,05,27,10,55,17.70
2020,05,27,10,56,17.70
2020,05,27,10,57,17.70
2020,05,27,10,58,17.80
2020,05,27,10,59,17.80
2020,05,27,11,00,17.80
2020,05,27,11,01,17.80
2020,05,27,11,02,17.80
2020,05,27,11,03,17.80
2020,05,27,11,04,17.70
2020,05,27,11,05,17.70
2020,05,27,11,06,17.80
2020,05,27,11,07,17.80
2020,05,27,11,08,17.90
2020,05,27,11,09,17.90
2020,05,27,11,10,18.00
2020,05,27,11,11,18.00
2020,05,27,11,12,18.10
2020,05,27,11,13,18.10
2020,05,27,11,14,18.10
2020,05,27,11,15,18.10
2020,05,27,11,16,18.20
2020,05,27,11,17,18.20
2020,05,27,11,18,18.20
2020,05,27,11,19,18.20
2020,05,27,11,20,18.20
2020,05,27,11,21,18.20
2020,05,27,11,22,18.30
2020,05,27,11,23,18.30
2020,05,27,11,24,18.30
2020,05,27,11,25,18.30
2020,05,27,11,26,18.30
2020,05,27,11,27,18.30
2020,05,27,11,28,18.30
2020,05,27,11,29,18.40
2020,05,27,11,30,18.40
2020,05,27,11,31,18.50
2020,05,27,11,32,18.50
2020,05,27,11,33,18.60
2020,05,27,11,34,18.70
2020,05,27,11,35,18.70
2020,05,27,11,36,18.70
2020,05,27,11,37,18.70
2020,05,27,11,38,18.70
2020,05,27,11,39,18.70
2020,05,27,11,40,18.70
2020,05,27,11,41,18.70
2020,05,27,11,42,18.80
2020,05,27,11,43,18.80
2020,05,27,11,44,18.80
2020,05,27,11,45,18.80
2020,05,27,11,46,18.80
2020,05,27,11,47,18.80
2020,05,27,11,48,18.80
2020,05,27,11,49,18.80
2020,05,27,11,50,18.80
2020,05,27,11,51,18.90
2020,05,27,11,52,18.90
2020,05,27,11,53,18.90
2020,05,27,11,54,18.90
2020,05,27,11,55,18.90
2020,05,27,11,56,18.80
2020,05,27,11,57,18.80
2020,05,27,11,58,18.70
2020,05,27,11,59,18.70
2020,05,27,12,00,18.60
2020,05,27,12,01,18.60
2020,05,27,12,02,18.60
2020,05,27,12,03,18.60
2020,05,27,12,04,18.60
2020,05,27,12,05,18.60
2020,05,27,12,06,18.60
2020,05,27,12,07,18.60
2020,05,27,12,08,18.60
2020,05,27,12,09,18.60
2020,05,27,12,10,18.60
2020,05,27,12,11,18.60
2020,05,27,12,12,18.60
2020,05,27,12,13,18.60
2020,05,27,12,14,18.70
2020,05,27,12,15,18.80
2020,05,27,12,16,18.80
2020,05,27,12,17,18.80
2020,05,27,12,18,18.90
2020,05,27,12,19,18.90
2020,05,27,12,20,18.90
2020,05,27,12,21,18.90
2020,05,27,12,22,19.00
2020,05,27,12,23,19.00
2020,05,27,12,24,19.10
2020,05,27,12,25,19.10
2020,05,27,12,26,19.10
2020,05,27,12,27,19.10
2020,05,27,12,28,19.20
2020,05,27,12,29,19.20
2020,05,27,12,30,19.30
2020,05,27,12,31,19.30
2020,05,27,12,32,19.30
2020,05,27,12,33,19.30
2020,05,27,12,34,19.40
2020,05,27,12,35,19.40
2020,05,27,12,36,19.40
2020,05,27,12,37,19.50
2020,05,27,12,38,19.50
2020,05,27,12,39,19.50
2020,05,27,12,40,19.50
2020,05,27,12,41,19.50
2020,05,27,12,42,19.50
2020,05,27,12,43,19.50
2020,05,27,12,44,19.50
2020,05,27,12,45,19.40
2020,05,27,12,46,19.50
2020,05,27,12,47,19.50
2020,05,27,12,48,19.60
2020,05,27,12,49,19.60
2020,05,27,12,50,19.70
2020,05,27,12,51,19.70
2020,05,27,12,52,19.80
2020,05,27,12,53,19.80
2020,05,27,12,54,19.80
2020,05,27,12,55,19.80
2020,05,27,12,56,19.80
2020,05,27,12,57,19.80
2020,05,27,12,58,19.80
2020,05,27,12,59,19.90
2020,05,27,13,00,19.90
2020,05,27,13,01,20.00
2020,05,27,13,02,20.00
2020,05,27,13,03,20.10
2020,05,27,13,04,20.10
2020,05,27,13,05,20.10
2020,05,27,13,06,20.10
2020,05,27,13,07,20.10
2020,05,27,13,08,20.10
2020,05,27,13,09,20.10
2020,05,27,13,10,20.10
2020,05,27,13,11,20.00
2020,05,27,13,12,19.90
2020,05,27,13,13,19.90
2020,05,27,13,14,19.90
2020,05,27,13,15,19.90
2020,05,27,13,16,19.90
2020,05,27,13,17,19.80
2020,05,27,13,18,19.80
2020,05,27,13,19,19.80
2020,05,27,13,20,19.80
2020,05,27,13,21,19.80
2020,05,27,13,22,19.80
2020,05,27,13,23,19.80
2020,05,27,13,24,19.80
2020,05,27,13,25,19.70
2020,05,27,13,26,19.80
2020,05,27,13,27,19.80
2020,05,27,13,28,19.80
2020,05,27,13,29,19.80
2020,05,27,13,30,19.80
2020,05,27,13,31,19.90
2020,05,27,13,32,19.90
2020,05,27,13,33,19.90
2020,05,27,13,34,19.90
2020,05,27,13,35,19.90
2020,05,27,13,36,19.90
2020,05,27,13,37,19.90
2020,05,27,13,38,19.90
2020,05,27,13,39,19.80
2020,05,27,13,40,19.80
2020,05,27,13,41,19.80
2020,05,27,13,42,19.80
2020,05,27,13,43,19.80
2020,05,27,13,44,19.80
2020,05,27,13,45,19.80
2020,05,27,13,46,19.80
2020,05,27,13,47,19.80
2020,05,27,13,48,19.80
2020,05,27,13,49,19.80
2020,05,27,13,50,19.80
2020,05,27,13,51,19.80
2020,05,27,13,52,19.80
2020,05,27,13,53,19.80
2020,05,27,13,54,19.80
2020,05,27,13,55,19.70
2020,05,27,13,56,19.80
2020,05,27,13,57,19.70
2020,05,27,13,58,19.70
2020,05,27,13,59,19.70
2020,05,27,14,00,19.70
2020,05,27,14,01,19.70
2020,05,27,14,02,19.80
2020,05,27,14,03,19.80
2020,05,27,14,04,19.80
2020,05,27,14,05,19.80
2020,05,27,14,06,19.80
2020,05,27,14,07,19.80
2020,05,27,14,08,19.80
2020,05,27,14,09,19.80
2020,05,27,14,10,19.80
2020,05,27,14,11,19.80
2020,05,27,14,12,19.80
2020,05,27,14,13,19.80
2020,05,27,14,14,19.80
2020,05,27,14,15,19.90
2020,05,27,14,16,19.90
2020,05,27,14,17,19.90
2020,05,27,14,18,19.90
2020,05,27,14,19,19.90
2020,05,27,14,20,19.90
2020,05,27,14,21,19.90
2020,05,27,14,22,19.90
2020,05,27,14,23,19.90
2020,05,27,14,24,19.90
2020,05,27,14,25,19.90
2020,05,27,14,26,19.90
2020,05,27,14,27,20.00
2020,05,27,14,28,20.00
2020,05,27,14,29,19.90
2020,05,27,14,30,19.90
2020,05,27,14,31,19.90
2020,05,27,14,32,19.90
2020,05,27,14,33,19.90
2020,05,27,14,34,19.90
2020,05,27,14,35,19.90
2020,05,27,14,36,19.90
2020,05,27,14,37,19.90
2020,05,27,14,38,19.90
2020,05,27,14,39,19.90
2020,05,27,14,40,19.90
2020,05,27,14,41,19.90
2020,05,27,14,42,19.90
2020,05,27,14,43,19.90
2020,05,27,14,44,20.00
2020,05,27,14,45,20.00
2020,05,27,14,46,20.00
2020,05,27,14,47,20.00
2020,05,27,14,48,20.00
2020,05,27,14,49,19.90
2020,05,27,14,50,19.80
2020,05,27,14,51,19.80
2020,05,27,14,52,19.80
2020,05,27,14,53,19.80
2020,05,27,14,54,19.70
2020,05,27,14,55,19.60
2020,05,27,14,56,19.60
2020,05,27,14,57,19.60
2020,05,27,14,58,19.60
2020,05,27,14,59,19.50
2020,05,27,15,00,19.50
2020,05,27,15,01,19.50
2020,05,27,15,02,19.50
2020,05,27,15,03,19.40
2020,05,27,15,04,19.40
2020,05,27,15,05,19.40
2020,05,27,15,06,19.40
2020,05,27,15,07,19.40
2020,05,27,15,08,19.30
2020,05,27,15,09,19.30
2020,05,27,15,10,19.30
2020,05,27,15,11,19.30
2020,05,27,15,12,19.30
2020,05,27,15,13,19.20
2020,05,27,15,14,19.20
2020,05,27,15,15,19.20
2020,05,27,15,16,19.30
2020,05,27,15,17,19.30
2020,05,27,15,18,19.30
2020,05,27,15,19,19.40
2020,05,27,15,20,19.50
2020,05,27,15,21,19.60
2020,05,27,15,22,19.70
2020,05,27,15,23,19.80
2020,05,27,15,24,19.80
2020,05,27,15,25,19.90
2020,05,27,15,26,20.00
2020,05,27,15,27,20.10
2020,05,27,15,28,20.20
2020,05,27,15,29,20.20
2020,05,27,15,30,20.30
2020,05,27,15,31,20.40
2020,05,27,15,32,20.50
2020,05,27,15,33,20.50
2020,05,27,15,34,20.60
2020,05,27,15,35,20.60
2020,05,27,15,36,20.70
2020,05,27,15,37,20.70
2020,05,27,15,38,20.70
2020,05,27,15,39,20.70
2020,05,27,15,40,20.70
2020,05,27,15,41,20.80
2020,05,27,15,42,20.80
2020,05,27,15,43,20.90
2020,05,27,15,44,20.90
2020,05,27,15,45,21.00
2020,05,27,15,46,21.10
2020,05,27,15,47,21.10
2020,05,27,15,48,21.20
2020,05,27,15,49,21.20
2020,05,27,15,50,21.20
2020,05,27,15,51,21.30
2020,05,27,15,52,21.30
2020,05,27,15,53,21.30
2020,05,27,15,54,21.30
2020,05,27,15,55,21.20
2020,05,27,15,56,21.20
2020,05,27,15,57,21.20
2020,05,27,15,58,21.10
2020,05,27,15,59,21.10
2020,05,27,16,00,21.00
2020,05,27,16,01,21.00
2020,05,27,16,02,20.90
2020,05,27,16,03,20.90
2020,05,27,16,04,20.80
2020,05,27,16,05,20.80
2020,05,27,16,06,20.80
2020,05,27,16,07,20.80
2020,05,27,16,08,20.80
2020,05,27,16,09,20.80
2020,05,27,16,10,20.80
2020,05,27,16,11,20.80
2020,05,27,16,12,20.80
2020,05,27,16,13,20.80
2020,05,27,16,14,20.80
2020,05,27,16,15,20.90
2020,05,27,16,16,20.90
2020,05,27,16,17,20.90
2020,05,27,16,18,20.90
2020,05,27,16,19,20.90
2020,05,27,16,20,20.90
2020,05,27,16,21,20.90
2020,05,27,16,22,20.90
2020,05,27,16,23,20.80
2020,05,27,16,24,20.80
2020,05,27,16,25,20.90
2020,05,27,16,26,20.90
2020,05,27,16,27,20.90
2020,05,27,16,28,20.80
2020,05,27,16,29,20.80
2020,05,27,16,30,20.80
2020,05,27,16,31,20.80
2020,05,27,16,32,20.80
2020,05,27,16,33,20.80
2020,05,27,16,34,20.70
2020,05,27,16,35,20.70
2020,05,27,16,36,20.70
2020,05,27,16,37,20.70
2020,05,27,16,38,20.60
2020,05,27,16,39,20.60
2020,05,27,16,40,20.50
2020,05,27,16,41,20.40
2020,05,27,16,42,20.40
2020,05,27,16,43,20.40
2020,05,27,16,44,20.40
2020,05,27,16,45,20.40
2020,05,27,16,46,20.40
2020,05,27,16,47,20.40
2020,05,27,16,48,20.40
2020,05,27,16,49,20.40
2020,05,27,16,50,20.40
2020,05,27,16,51,20.40
2020,05,27,16,52,20.40
2020,05,27,16,53,20.40
2020,05,27,16,54,20.40
2020,05,27,16,55,20.40
2020,05,27,16,56,20.50
2020,05,27,16,57,20.50
2020,05,27,16,58,20.50
2020,05,27,16,59,20.50
2020,05,27,17,00,20.50
2020,05,27,17,01,20.50
2020,05,27,17,02,20.50
2020,05,27,17,03,20.50
2020,05,27,17,04,20.50
2020,05,27,17,05,20.50
2020,05,27,17,06,20.50
2020,05,27,17,07,20.50
2020,05,27,17,08,20.40
2020,05,27,17,09,20.40
2020,05,27,17,10,20.40
2020,05,27,17,11,20.40
2020,05,27,17,12,20.30
2020,05,27,17,13,20.30
2020,05,27,17,14,20.30
2020,05,27,17,15,20.40
2020,05,27,17,16,20.40
2020,05,27,17,17,20.40
2020,05,27,17,18,20.40
2020,05,27,17,19,20.40
2020,05,27,17,20,20.40
2020,05,27,17,21,20.40
2020,05,27,17,22,20.40
2020,05,27,17,23,20.40
2020,05,27,17,24,20.40
2020,05,27,17,25,20.40
2020,05,27,17,26,20.40
2020,05,27,17,27,20.40
2020,05,27,17,28,20.40
2020,05,27,17,29,20.40
2020,05,27,17,30,20.40
2020,05,27,17,31,20.40
2020,05,27,17,32,20.40
2020,05,27,17,33,20.40
2020,05,27,17,34,20.40